CCM26G LFKJ-EBCI

Flight info

Callsign CCM26G
Flight time N/A
Altitude 34000
Route LONSU M622 PIGOS DCT BARSO DCT IRMAR DCT KINES DCT VANAS DCT MOBLO DCT UBIMA DCT GILIR DCT PENDU DCT IXILU DCT EPL/N0452F320 DCT ROUSY/N0452F310 M624 DIK/N0452F320 Y37 BATTY
Aircraft A320/M-SDE3FGHIRWY/LB1

Departure

Time 2026-05-06 15:30
Airport Ajaccio Napoléon Bonaparte airport (LFKJ)

Arrival

Time N/A
Airport Brussels South Charleroi Airport (EBCI)
Time Latitude Longitude Altitude Speed Heading
2026-05-06 15:04 41.91959 8.79575 21 ft 0 kts 345°
2026-05-06 15:20 41.91958 8.79575 21 ft 2 kts 345°
2026-05-06 15:21 41.91934 8.79584 24 ft 2 kts 345°
2026-05-06 15:21 41.91933 8.79584 24 ft 0 kts 345°
2026-05-06 15:24 41.91937 8.79584 21 ft 2 kts 355°
2026-05-06 15:24 41.91964 8.79604 21 ft 6 kts 32°
2026-05-06 15:25 41.92018 8.79648 22 ft 12 kts 32°
2026-05-06 15:25 41.92103 8.79732 21 ft 17 kts 30°
2026-05-06 15:25 41.92207 8.79798 22 ft 16 kts 25°
2026-05-06 15:25 41.92301 8.79856 21 ft 14 kts 25°
2026-05-06 15:26 41.92387 8.79910 21 ft 14 kts 25°
2026-05-06 15:26 41.92486 8.79971 21 ft 16 kts 25°
2026-05-06 15:26 41.92581 8.80030 22 ft 14 kts 25°
2026-05-06 15:26 41.92650 8.80073 22 ft 8 kts 25°
2026-05-06 15:27 41.92727 8.80123 23 ft 15 kts 29°
2026-05-06 15:27 41.92810 8.80199 21 ft 14 kts 42°
2026-05-06 15:27 41.92873 8.80284 21 ft 12 kts 44°
2026-05-06 15:27 41.92930 8.80361 21 ft 11 kts 46°
2026-05-06 15:28 41.92965 8.80439 22 ft 9 kts 78°
2026-05-06 15:28 41.92956 8.80503 26 ft 6 kts 111°
2026-05-06 15:28 41.92941 8.80551 30 ft 4 kts 115°
2026-05-06 15:28 41.92903 8.80562 27 ft 7 kts 197°
2026-05-06 15:29 41.92875 8.80546 26 ft 3 kts 205°
2026-05-06 15:29 41.92798 8.80498 26 ft 45 kts 205°
2026-05-06 15:29 41.92300 8.80187 23 ft 109 kts 205°
2026-05-06 15:29 41.91772 8.79857 27 ft 142 kts 205°
2026-05-06 15:30 41.90873 8.79290 598 ft 138 kts 207°
2026-05-06 15:30 41.90188 8.78357 1077 ft 146 kts 242°
2026-05-06 15:30 41.89518 8.76699 1591 ft 164 kts 239°
2026-05-06 15:30 41.89128 8.75784 1841 ft 175 kts 239°
2026-05-06 15:31 41.88477 8.74279 2124 ft 196 kts 239°
2026-05-06 15:31 41.87746 8.72604 2369 ft 221 kts 239°
2026-05-06 15:31 41.86918 8.70730 2773 ft 243 kts 240°
2026-05-06 15:32 41.85111 8.66629 4289 ft 261 kts 240°
2026-05-06 15:32 41.84199 8.64539 5177 ft 265 kts 242°
2026-05-06 15:32 41.83705 8.62168 6059 ft 268 kts 270°
2026-05-06 15:32 41.84159 8.59747 6945 ft 272 kts 297°
2026-05-06 15:33 41.85437 8.57844 7787 ft 282 kts 323°
2026-05-06 15:33 41.87207 8.56637 8643 ft 286 kts 331°
2026-05-06 15:33 41.89035 8.55540 9506 ft 290 kts 332°
2026-05-06 15:33 41.90879 8.54472 10241 ft 296 kts 331°
2026-05-06 15:34 41.92838 8.53323 10556 ft 317 kts 331°
2026-05-06 15:34 41.94919 8.52077 10798 ft 339 kts 331°
2026-05-06 15:34 41.97154 8.50749 11010 ft 360 kts 332°
2026-05-06 15:34 41.99454 8.49409 11573 ft 367 kts 332°
2026-05-06 15:35 42.01815 8.48029 12249 ft 371 kts 332°
2026-05-06 15:35 42.04189 8.46630 12971 ft 374 kts 332°
2026-05-06 15:35 42.06587 8.45220 13651 ft 378 kts 332°
2026-05-06 15:35 42.09017 8.43781 14251 ft 382 kts 332°
2026-05-06 15:36 42.11463 8.42326 14849 ft 386 kts 332°
2026-05-06 15:36 42.13942 8.40848 15429 ft 390 kts 332°
2026-05-06 15:36 42.16436 8.39359 16005 ft 394 kts 331°
2026-05-06 15:37 42.21095 8.36572 17058 ft 402 kts 331°
2026-05-06 15:37 42.24431 8.34573 17809 ft 407 kts 331°
2026-05-06 15:37 42.26183 8.33523 18220 ft 409 kts 331°
2026-05-06 15:37 42.29650 8.31447 18924 ft 413 kts 331°